Weather History for KDZB - October, 2012

Change the Weather History Date:

Thursday, October 25, 2012

  Actual Average (KBMQ) Record (KBMQ)
Temperature  
Mean Temperature 73 °F -  
Max Temperature 86 °F 73 °F 87 °F (2014)
Min Temperature 60 °F 55 °F 34 °F (2005)
Cooling Degree Days 8    
Growing Degree Days 23 (Base 50)    
Moisture  
Dew Point 59 °F    
Average Humidity 61    
Maximum Humidity 83    
Minimum Humidity 45    
Precipitation  
Precipitation 0.00 in - - ()
Sea Level Pressure  
Sea Level Pressure 29.90 in    
Wind  
Wind Speed - (North)    
Max Wind Speed -    
Max Gust Speed -    
Visibility 10 miles    
Events      
Averages and records for this station are not official NWS values.
T = Trace of Precipitation, MM = Missing Value Source: NWS Daily Summary

Daily Weather History Graph

Daily Weather History Graph

Search for Another Location

Airport or City:

Trip Planner

Search our weather history database for the weather conditions in past years. The results will help you decide how hot, cold, wet, or windy it might be!

Date:

Astronomy

Oct. 25, 2012 Rise Set
Actual Time 6:43 AM MDT 5:51 PM MDT
Civil Twilight 6:18 AM MDT 6:15 PM MDT
Nautical Twilight 5:50 AM MDT 6:44 PM MDT
Astronomical Twilight 5:22 AM MDT 7:12 PM MDT
Moon 3:25 PM MDT (10/25) 2:55 AM MDT (10/25)
Length of Visible Light 11h 57m
Length of Day
11h 08m
Waxing Gibbous, 85% of the Moon is Illuminated
Oct 25
Waxing Gibbous
Oct 29
Full
Nov 6
Last Quarter
Nov 13
New
Nov 20
First Quarter

Hourly Weather History & Observations

Time (MDT) Temp. Heat Index Dew Point Humidity Pressure Visibility Wind Dir Wind Speed Gust Speed Precip Events Conditions
12:15 AM 69.8 °F - 62.6 °F 78% 29.85 in 10.0 mi North - - N/A   Scattered Clouds
12:35 AM 69.8 °F - 64.4 °F 83% 29.85 in 10.0 mi North - - N/A   Mostly Cloudy
12:55 AM 69.8 °F - 64.4 °F 83% 29.86 in 10.0 mi North - - N/A   Overcast
1:35 AM 69.8 °F - 64.4 °F 83% 29.85 in 10.0 mi North - - N/A   Overcast
1:55 AM 71.6 °F - 64.4 °F 78% 29.85 in 10.0 mi North - - N/A   Overcast
2:15 AM 71.6 °F - 64.4 °F 78% 29.84 in 10.0 mi North - - N/A   Overcast
2:35 AM 71.6 °F - 64.4 °F 78% 29.83 in 10.0 mi North - - N/A   Overcast
2:55 AM 69.8 °F - 64.4 °F 83% 29.83 in 10.0 mi North - - N/A   Overcast
3:15 AM 71.6 °F - 64.4 °F 78% 29.83 in 10.0 mi North - - N/A   Overcast
3:35 AM 71.6 °F - 64.4 °F 78% 29.82 in 10.0 mi North - - N/A   Overcast
3:55 AM 69.8 °F - 64.4 °F 83% 29.83 in 10.0 mi North - - N/A   Mostly Cloudy
4:15 AM 71.6 °F - 64.4 °F 78% 29.83 in 10.0 mi North - - N/A   Overcast
4:35 AM 71.6 °F - 64.4 °F 78% 29.83 in 10.0 mi North - - N/A   Overcast
4:55 AM 71.6 °F - 62.6 °F 73% 29.83 in 10.0 mi North - - N/A   Mostly Cloudy
5:55 AM 71.6 °F - 64.4 °F 78% 29.85 in 10.0 mi North - - N/A   Overcast
6:15 AM 71.6 °F - 64.4 °F 78% 29.85 in 10.0 mi North - - N/A   Overcast
6:35 AM 71.6 °F - 64.4 °F 78% 29.86 in 10.0 mi North - - N/A   Overcast
6:55 AM 71.6 °F - 64.4 °F 78% 29.87 in 10.0 mi North - - N/A   Overcast
7:35 AM 71.6 °F - 62.6 °F 73% 29.90 in 10.0 mi North - - N/A   Overcast
7:55 AM 73.4 °F - 64.4 °F 73% 29.90 in 10.0 mi North - - N/A   Mostly Cloudy
8:15 AM 73.4 °F - 64.4 °F 73% 29.91 in 10.0 mi North - - N/A   Mostly Cloudy
8:55 AM 73.4 °F - 62.6 °F 69% 29.91 in 10.0 mi North - - N/A   Scattered Clouds
9:15 AM 73.4 °F - 62.6 °F 69% 29.91 in 10.0 mi North - - N/A   Clear
9:35 AM 75.2 °F - 62.6 °F 65% 29.91 in 10.0 mi North - - N/A   Clear
9:55 AM 77.0 °F - 62.6 °F 61% 29.91 in 10.0 mi North - - N/A   Clear
10:15 AM 78.8 °F - 60.8 °F 54% 29.91 in 10.0 mi North - - N/A   Clear
10:35 AM 78.8 °F - 60.8 °F 54% 29.91 in 10.0 mi North - - N/A   Clear
10:55 AM 80.6 °F 81.5 °F 60.8 °F 51% 29.91 in 7.0 mi North - - N/A   Clear
11:15 AM 80.6 °F 81.5 °F 60.8 °F 51% 29.90 in 10.0 mi North - - N/A   Clear
11:35 AM 80.6 °F 81.1 °F 59.0 °F 48% 29.89 in 10.0 mi North - - N/A   Clear
11:55 AM 82.4 °F 82.5 °F 59.0 °F 45% 29.88 in 7.0 mi North - - N/A   Clear
12:15 PM 82.4 °F 82.9 °F 60.8 °F 48% 29.88 in 10.0 mi North - - N/A   Clear
12:35 PM 82.4 °F 82.9 °F 60.8 °F 48% 29.87 in 10.0 mi North - - N/A   Clear
12:55 PM 84.2 °F 84.4 °F 60.8 °F 45% 29.86 in 10.0 mi North - - N/A   Clear
1:15 PM 84.2 °F 84.4 °F 60.8 °F 45% 29.86 in 7.0 mi North - - N/A   Clear
1:35 PM 84.2 °F 84.4 °F 60.8 °F 45% 29.85 in 10.0 mi North - - N/A   Clear
2:15 PM 84.2 °F 84.4 °F 60.8 °F 45% 29.85 in 10.0 mi North - - N/A   Mostly Cloudy
2:35 PM 82.4 °F 83.4 °F 62.6 °F 51% 29.85 in 10.0 mi North - - N/A   Overcast
2:55 PM 82.4 °F 82.9 °F 60.8 °F 48% 29.85 in 10.0 mi North - - N/A   Mostly Cloudy
3:15 PM 86.0 °F 86.6 °F 62.6 °F 45% 29.85 in 10.0 mi North - - N/A   Scattered Clouds
3:35 PM 86.0 °F 86.6 °F 62.6 °F 45% 29.85 in 10.0 mi North - - N/A   Scattered Clouds
3:55 PM 86.0 °F 86.6 °F 62.6 °F 45% 29.85 in 10.0 mi North - - N/A   Mostly Cloudy
4:15 PM 84.2 °F 85.0 °F 62.6 °F 48% 29.85 in 10.0 mi North - - N/A   Mostly Cloudy
4:35 PM 84.2 °F 85.0 °F 62.6 °F 48% 29.85 in 10.0 mi North - - N/A   Scattered Clouds
4:55 PM 82.4 °F 83.4 °F 62.6 °F 51% 29.85 in 10.0 mi North - - N/A   Scattered Clouds
5:15 PM 80.6 °F 81.8 °F 62.6 °F 54% 29.86 in 10.0 mi North - - N/A   Scattered Clouds
5:35 PM 80.6 °F 81.8 °F 62.6 °F 54% 29.86 in 10.0 mi North - - N/A   Mostly Cloudy
5:55 PM 78.8 °F - 62.6 °F 57% 29.88 in 10.0 mi North - - N/A   Overcast
6:15 PM 73.4 °F - 57.2 °F 57% 29.90 in 10.0 mi North - - N/A   Overcast
6:35 PM 73.4 °F - 55.4 °F 53% 29.92 in 10.0 mi North - - N/A   Overcast
6:55 PM 69.8 °F - 53.6 °F 56% 29.94 in 10.0 mi North - - N/A   Overcast
7:15 PM 69.8 °F - 53.6 °F 56% 29.95 in 10.0 mi North - - N/A   Overcast
7:35 PM 68.0 °F - 51.8 °F 56% 29.96 in 10.0 mi North - - N/A   Overcast
7:55 PM 68.0 °F - 51.8 °F 56% 29.98 in 10.0 mi North - - N/A   Overcast
8:15 PM 66.2 °F - 51.8 °F 60% 29.99 in 10.0 mi North - - N/A   Overcast
8:35 PM 64.4 °F - 50.0 °F 59% 30.00 in 10.0 mi North - - N/A   Overcast
8:55 PM 64.4 °F - 50.0 °F 59% 30.01 in 10.0 mi North - - N/A   Overcast
9:35 PM 62.6 °F - 48.2 °F 59% 30.03 in 10.0 mi North - - N/A   Overcast
9:55 PM 62.6 °F - 46.4 °F 55% 30.04 in 10.0 mi North - - N/A   Overcast
10:15 PM 60.8 °F - 46.4 °F 59% 30.04 in 10.0 mi North - - N/A   Overcast
10:35 PM 60.8 °F - 44.6 °F 55% 30.05 in 10.0 mi North - - N/A   Overcast
10:55 PM 60.8 °F - 44.6 °F 55% 30.06 in 10.0 mi North - - N/A   Overcast
11:15 PM 60.8 °F - 44.6 °F 55% 30.05 in 10.0 mi North - - N/A   Overcast
11:35 PM 60.8 °F - 44.6 °F 55% 30.06 in 10.0 mi North - - N/A   Overcast
11:55 PM 60.8 °F - 44.6 °F 55% 30.06 in 10.0 mi North - - N/A   Overcast